マクノート彗星

C/2011 R1 ( McNaught )

English version
Home page
Updated on April 7, 2012

---------------------------------------------------------------------

・ プロフィール

発見日 2011年9月3日
発見光度 16.5等
発見者 Robert H. McNaught (Siding Spring)

・ 写真集

・ 軌道要素

Epoch 2012 Sept. 30.0 TT = JDT 2456200.5
T 2012 Oct. 19.62230 TT                                 MPC
q   2.0795937            (2000.0)            P               Q
z  -0.0003353      Peri.  308.86115     -0.24322222     -0.76721886
 +/-0.0000018      Node   221.40828     -0.33937683     -0.50586876
e   1.0006974      Incl.  116.19708     -0.90866183     +0.39429940
From 411 observations 2010 Oct. 11-2012 Mar. 21, mean residual 0".4.

・ 星図

・ 光度変化

        m1 = 6.5 + 5 logΔ + 10.0 log r

---------------------------------------------------------------------

軌道要素はM.P.E.C. 2012-G18に掲載されたものです。
星図はステラナビゲータ Ver.8 (アストロアーツ) で作成したものです。
光度グラフはComet for Windowsで作成したものです。

---------------------------------------------------------------------

Copyright(C) Seiichi Yoshida (comet@aerith.net). All rights reserved.